CW5306 Weather Reports


Display with metric or nautical units.
time (UTC)temp
F
wind
direction
speed
MPH
gust
MPH
rain 1hr
in
rain 24hr
in
rain mn
in
humidity
%
barometer
mb
20260904062359 78 101 10.0 20.0 0.00 0.01 0.01 76 1014.3
20260904061900 79 126 9.0 19.0 0.00 0.01 0.01 77 1014.1
20260904061736 78 103 9.0 19.0 0.00 0.01 0.01 76 1014.4
20260904060627 78 90 9.0 21.0 0.00 0.01 0.01 76 1014.4
20260904060127 78 70 11.0 21.0 0.00 0.01 0.01 76 1014.1
20260904055858 79 100 7.0 17.0 0.00 0.01 0.01 77 1014.0
20260904055116 79 120 10.0 21.0 0.00 0.01 0.01 77 1014.0
20260904054846 78 63 9.0 21.0 0.00 0.01 0.01 77 1014.1
20260904054115 79 41 6.0 20.0 0.00 0.01 0.01 77 1013.8
20260904053616 79 123 9.0 20.0 0.00 0.01 0.01 78 1013.8
20260904053117 79 107 9.0 21.0 0.00 0.01 0.01 77 1013.7
20260904052615 79 96 6.0 21.0 0.00 0.01 0.01 77 1013.9
20260904052116 79 75 10.0 20.0 0.00 0.01 0.01 77 1013.7
20260904051615 79 84 9.0 20.0 0.00 0.01 0.01 75 1013.6
20260904051347 79 58 10.0 21.0 0.00 0.01 0.01 75 1013.4
20260904050616 79 128 9.0 21.0 0.00 0.01 0.01 76 1013.4
20260904050116 79 126 14.0 19.0 0.00 0.01 0.01 75 1013.7
20260904045846 79 84 9.0 21.0 0.00 0.01 0.01 77 1013.5
20260904045336 79 99 5.0 21.0 0.00 0.01 0.01 76 1013.4
20260904044834 79 49 11.0 19.0 0.00 0.01 0.01 76 1013.4
20260904044104 79 99 8.0 19.0 0.00 0.01 0.01 76 1013.2
20260904043835 79 71 10.0 21.0 0.00 0.01 0.01 76 1013.5
20260904043105 78 105 8.0 21.0 0.00 0.01 0.01 77 1013.3
20260904042604 78 72 10.0 20.0 0.00 0.01 0.01 79 1013.2
20260904042104 78 58 8.0 19.0 0.00 0.01 0.01 80 1013.1
20260904041557 79 68 7.0 21.0 0.00 0.01 0.01 78 1013.0
20260904041552 79 111 13.0 19.0 0.00 0.01 0.01 79 1013.2
20260904040552 79 26 11.0 21.0 0.00 0.01 0.01 78 1013.1
20260904040052 79 54 13.0 21.0 0.00 0.01 0.01 78 1013.1
20260904035551 79 54 9.0 19.0 0.00 0.01 0.01 78 1012.9
20260904035051 79 102 13.0 24.0 0.00 0.01 0.01 77 1012.8
20260904034552 79 116 16.0 24.0 0.00 0.01 0.01 76 1012.9
20260904034040 79 95 11.0 20.0 0.00 0.01 0.01 75 1012.8
20260904033540 79 119 5.0 23.0 0.00 0.01 0.01 76 1012.6
20260904033040 78 119 16.0 23.0 0.00 0.01 0.01 77 1012.6
20260904032541 78 100 9.0 24.0 0.00 0.01 0.01 79 1012.7
20260904032039 79 39 10.0 24.0 0.00 0.01 0.01 80 1013.0
20260904031540 79 103 13.0 20.0 0.00 0.01 0.01 79 1012.9
20260904031041 78 102 12.0 24.0 0.00 0.01 0.01 79 1013.1
20260904030758 78 92 10.0 24.0 0.00 0.01 0.01 79 1012.8
20260904030027 78 76 12.0 20.0 0.00 0.01 0.01 80 1012.9
20260904025528 78 97 8.0 23.0 0.00 0.01 0.01 80 1012.9
20260904025028 78 81 13.0 23.0 0.00 0.01 0.01 79 1013.0
20260904024528 78 79 9.0 24.0 0.00 0.01 0.01 80 1013.2
20260904024259 78 115 10.0 24.0 0.00 0.01 0.01 80 1012.6
20260904023527 78 108 9.0 23.0 0.00 0.01 0.01 82 1012.9
20260904023027 77 98 4.0 17.0 0.00 0.01 0.01 85 1013.0
20260904022528 77 125 6.0 11.0 0.00 0.01 0.01 87 1013.2
20260904022028 76 136 6.0 11.0 0.00 0.01 0.01 88 1013.3
20260904021528 76 103 4.0 19.0 0.00 0.01 0.01 88 1013.5
20260904021028 76 164 6.0 19.0 0.00 0.01 0.01 88 1013.4
20260904020759 76 102 6.0 16.0 0.00 0.01 0.01 88 1013.5
20260904020027 76 128 10.0 20.0 0.00 0.01 0.01 88 1013.5
20260904015541 77 83 10.0 21.0 0.00 0.01 0.01 86 1013.7
20260904015535 76 118 8.0 20.0 0.00 0.01 0.01 87 1013.7
20260904015529 76 93 6.0 20.0 0.00 0.01 0.01 87 1013.8
20260903182004 79 146 13.0 24.0 0.00 0.06 0.01 81 1015.5
20260903181504 78 81 13.0 21.0 0.00 0.11 0.01 80 1015.6
20260903181004 78 88 10.0 21.0 0.00 0.15 0.01 81 1015.4
20260903180736 78 59 9.0 23.0 0.00 0.20 0.01 81 1015.4
20260903175951 78 92 17.0 23.0 0.00 0.26 0.01 80 1015.6
20260903175451 78 92 8.0 20.0 0.00 0.32 0.01 81 1015.5
20260903175222 77 87 10.0 20.0 0.00 0.41 0.01 82 1015.5
20260903174452 77 76 10.0 24.0 0.00 0.44 0.01 85 1015.5
20260903173952 76 68 7.0 24.0 0.00 0.45 0.01 85 1015.4
20260903173723 76 91 15.0 21.0 0.00 0.46 0.01 85 1015.7
20260903172951 77 98 11.0 21.0 0.00 0.47 0.01 85 1015.5
20260903172439 78 63 11.0 21.0 0.00 0.47 0.01 84 1015.5
20260903171939 77 77 9.0 19.0 0.00 0.47 0.01 83 1015.3
20260903171440 76 96 3.0 16.0 0.00 0.47 0.01 84 1015.4
20260903170940 76 135 5.0 16.0 0.01 0.47 0.01 85 1015.2
20260903170711 76 64 8.0 23.0 0.01 0.47 0.01 86 1015.3
20260903165940 76 128 12.0 23.0 0.01 0.47 0.01 86 1015.3
20260903165440 76 132 10.0 21.0 0.01 0.47 0.01 85 1015.0
20260903164928 76 112 4.0 20.0 0.01 0.47 0.01 85 1014.9
20260903164427 76 110 9.0 20.0 0.01 0.47 0.01 86 1014.9
20260903163927 75 116 13.0 17.0 0.01 0.47 0.01 87 1015.1
20260903163427 75 97 5.0 17.0 0.01 0.47 0.01 88 1014.9
20260903163159 75 93 7.0 15.0 0.01 0.47 0.01 88 1015.3
20260903162428 75 99 4.0 15.0 0.01 0.47 0.01 87 1015.2
20260903161928 76 126 6.0 17.0 0.01 0.47 0.01 86 1015.1
20260903161658 76 89 11.0 19.0 0.00 0.46 0.01 84 1015.1
20260903160927 77 115 5.0 19.0 0.00 0.46 0.00 83 1015.0
20260903160428 77 92 7.0 19.0 0.00 0.46 0.00 82 1014.9
20260903155927 77 124 12.0 17.0 0.00 0.46 0.00 82 1015.0
20260903155427 77 49 10.0 19.0 0.00 0.46 0.00 82 1015.0
20260903154928 77 89 13.0 19.0 0.00 0.46 0.00 81 1014.7
20260903154428 77 50 8.0 19.0 0.00 0.46 0.00 81 1014.5
20260903153928 77 135 10.0 19.0 0.00 0.46 0.00 82 1014.6
20260903153658 76 125 7.0 16.0 0.00 0.46 0.00 84 1014.8
20260903152928 76 74 9.0 21.0 0.00 0.47 0.00 85 1014.9
20260903152428 76 50 8.0 21.0 0.00 0.49 0.00 86 1015.0
20260903151928 76 86 11.0 24.0 0.00 0.50 0.00 86 1014.8
20260903151659 77 57 11.0 25.0 0.00 0.50 0.00 86 1014.9
20260903150929 77 69 14.0 25.0 0.00 0.50 0.00 84 1014.9
20260903150428 77 56 11.0 23.0 0.00 0.50 0.00 85 1014.6
20260903145927 76 68 10.0 20.0 0.00 0.50 0.00 85 1014.7
20260903145427 76 37 11.0 16.0 0.00 0.50 0.00 85 1014.7
20260903144928 76 77 7.0 25.0 0.00 0.50 0.00 84 1014.6
20260903144428 76 114 7.0 31.0 0.00 0.50 0.00 82 1015.0
20260903143928 77 76 11.0 31.0 0.00 0.49 0.00 82 1014.6
20260903143427 78 90 12.0 20.0 0.00 0.50 0.00 80 1014.8
20260903142928 78 70 11.0 23.0 0.00 0.50 0.00 80 1014.6
20260903142428 78 54 11.0 23.0 0.00 0.50 0.00 80 1014.5
20260903141929 78 94 9.0 19.0 0.00 0.50 0.00 81 1014.6
20260903141428 78 45 7.0 19.0 0.00 0.50 0.00 80 1014.4
20260903141201 78 71 6.0 19.0 0.00 0.51 0.00 81 1014.6
20260903140430 78 96 12.0 20.0 0.00 0.51 0.00 82 1014.5
20260903135928 78 85 13.0 20.0 0.00 0.51 0.00 82 1014.6
20260903135427 78 81 9.0 23.0 0.00 0.51 0.00 82 1014.4
20260903134929 78 59 15.0 20.0 0.00 0.51 0.00 82 1014.6
20260903134429 78 68 7.0 17.0 0.00 0.51 0.00 82 1014.6
20260903133928 78 93 8.0 23.0 0.00 0.51 0.00 82 1014.6
20260903133428 78 89 8.0 23.0 0.00 0.51 0.00 81 1014.4
20260903133158 78 126 11.0 20.0 0.00 0.51 0.00 80 1014.7
20260903132429 78 80 11.0 23.0 0.00 0.51 0.00 80 1014.6
20260903131928 78 85 13.0 23.0 0.00 0.51 0.00 80 1014.5
20260903131427 78 101 7.0 20.0 0.00 0.51 0.00 82 1014.4
20260903130927 78 87 12.0 20.0 0.00 0.51 0.00 81 1014.6
20260903130428 78 114 12.0 26.0 0.00 0.51 0.00 81 1014.7
20260903125928 78 66 7.0 26.0 0.00 0.51 0.00 82 1014.6
20260903125428 78 115 4.0 26.0 0.00 0.51 0.00 83 1014.5
20260903125159 78 126 10.0 26.0 0.00 0.51 0.00 82 1014.5
20260903124428 78 127 4.0 20.0 0.00 0.51 0.00 82 1014.6
20260903123929 78 92 12.0 20.0 0.00 0.51 0.00 82 1014.3
20260903123428 78 80 11.0 17.0 0.00 0.51 0.00 83 1014.4
20260903122927 78 93 8.0 20.0 0.00 0.51 0.00 83 1014.7
20260903122658 78 85 11.0 20.0 0.00 0.51 0.00 82 1014.5
20260903121927 78 105 12.0 19.0 0.00 0.51 0.00 80 1014.7
20260903121427 78 114 8.0 23.0 0.00 0.51 0.00 80 1014.7
20260903121158 78 95 8.0 23.0 0.00 0.51 0.00 81 1014.8
20260903120416 78 96 8.0 21.0 0.00 0.51 0.00 82 1014.9
20260903115916 78 86 8.0 23.0 0.00 0.51 0.00 82 1015.1
20260903115646 78 105 13.0 23.0 0.00 0.51 0.00 82 1014.9
20260903114916 78 87 8.0 20.0 0.00 0.51 0.00 82 1015.0
20260903114416 78 116 9.0 21.0 0.00 0.51 0.00 82 1014.8
20260903113915 78 61 10.0 21.0 0.00 0.51 0.00 81 1014.8
20260903113646 78 80 15.0 25.0 0.00 0.51 0.00 81 1014.7
20260903112915 78 125 14.0 25.0 0.00 0.51 0.00 81 1015.0
20260903112416 78 95 8.0 19.0 0.00 0.51 0.00 81 1015.2
20260903111916 78 43 8.0 23.0 0.00 0.51 0.00 82 1015.2
20260903111416 78 94 11.0 25.0 0.00 0.51 0.00 82 1015.1
20260903110916 78 93 16.0 25.0 0.00 0.51 0.00 81 1015.2
20260903110415 78 77 10.0 23.0 0.00 0.51 0.00 82 1015.2
20260903105915 78 107 15.0 23.0 0.00 0.51 0.00 81 1015.3
20260903105647 78 139 12.0 23.0 0.00 0.51 0.00 81 1015.4
20260903104916 78 90 9.0 24.0 0.00 0.51 0.00 81 1015.3
20260903104416 77 119 13.0 24.0 0.00 0.51 0.00 81 1015.5
20260903103916 77 108 9.0 21.0 0.00 0.51 0.00 83 1015.3
20260903103416 77 122 8.0 21.0 0.00 0.51 0.00 84 1015.7
20260903103147 77 129 6.0 20.0 0.00 0.51 0.00 83 1015.5
20260903102415 77 106 8.0 17.0 0.00 0.51 0.00 83 1015.2
20260903101915 77 114 6.0 20.0 0.00 0.51 0.00 82 1015.6
20260903101416 78 111 10.0 24.0 0.00 0.51 0.00 82 1015.4
20260903100915 78 83 15.0 24.0 0.00 0.51 0.00 82 1015.7
20260903100416 78 106 6.0 21.0 0.00 0.51 0.00 82 1015.8
20260903100146 78 121 12.0 19.0 0.00 0.51 0.51 82 1015.7
20260903095415 78 108 5.0 24.0 0.00 0.51 0.51 81 1015.6
20260903094916 78 69 11.0 24.0 0.00 0.51 0.51 80 1015.5
20260903094416 78 62 9.0 20.0 0.00 0.51 0.51 79 1015.7
20260903093915 78 119 7.0 20.0 0.00 0.51 0.51 81 1015.5
20260903093647 78 93 7.0 23.0 0.00 0.51 0.51 81 1015.8
20260903092916 78 75 15.0 23.0 0.00 0.51 0.51 82 1015.9
20260903092415 78 86 9.0 20.0 0.00 0.51 0.51 81 1016.0
20260903091916 78 94 11.0 23.0 0.00 0.51 0.51 81 1015.7
20260903091646 78 109 12.0 29.0 0.00 0.51 0.51 81 1016.2
20260903090915 78 99 6.0 29.0 0.00 0.51 0.51 81 1016.1
20260903090416 78 112 8.0 24.0 0.00 0.51 0.51 80 1016.3
20260903085915 78 105 12.0 25.0 0.00 0.51 0.51 81 1016.4
20260903085415 78 111 12.0 25.0 0.00 0.51 0.51 81 1016.3
20260903084915 78 112 13.0 21.0 0.00 0.51 0.51 81 1016.4
20260903084415 78 108 8.0 25.0 0.00 0.51 0.51 80 1016.3
20260903083921 78 129 6.0 16.0 0.00 0.51 0.51 81 1016.1
20260903083915 78 61 12.0 25.0 0.00 0.51 0.51 80 1016.3
20260903082916 78 123 8.0 25.0 0.00 0.51 0.51 81 1016.3
20260903082418 78 84 10.0 21.0 0.00 0.51 0.51 80 1016.1
20260903081915 78 114 9.0 24.0 0.00 0.51 0.51 81 1016.1
20260903081416 78 70 14.0 20.0 0.00 0.51 0.51 81 1016.6
20260903080916 78 105 11.0 20.0 0.00 0.51 0.51 82 1016.2
20260903080415 78 71 9.0 20.0 0.00 0.51 0.51 81 1016.2
20260903075916 78 93 9.0 25.0 0.00 0.51 0.51 81 1016.1
20260903075416 78 69 9.0 25.0 0.00 0.51 0.51 82 1016.1
20260903074918 78 86 9.0 23.0 0.00 0.51 0.51 82 1016.1
20260903074415 78 108 4.0 23.0 0.00 0.51 0.51 82 1016.0
20260903074144 79 98 8.0 21.0 0.00 0.51 0.51 82 1016.2
20260903073411 79 115 12.0 21.0 0.00 0.51 0.51 81 1015.9
20260903072907 79 131 7.0 21.0 0.00 0.51 0.51 81 1016.2
20260903072407 79 103 9.0 23.0 0.00 0.51 0.51 81 1016.2
20260903071907 79 95 11.0 23.0 0.00 0.51 0.51 81 1016.1
20260903071405 79 105 12.0 26.0 0.00 0.51 0.51 81 1016.0
20260903070905 79 96 11.0 26.0 0.00 0.51 0.51 80 1015.9
20260903070632 79 80 11.0 19.0 0.00 0.51 0.51 79 1015.8
20260903065900 79 89 10.0 17.0 0.00 0.51 0.51 80 1015.9
20260903065400 79 80 11.0 21.0 0.00 0.51 0.51 79 1015.7
20260903064859 79 114 7.0 21.0 0.00 0.51 0.51 79 1015.8
20260903064356 79 65 9.0 20.0 0.00 0.51 0.51 80 1016.0
20260903063856 79 103 9.0 20.0 0.00 0.51 0.51 80 1015.8
20260903063354 79 82 11.0 23.0 0.00 0.51 0.51 79 1015.7
20260903062851 79 116 9.0 23.0 0.00 0.51 0.51 79 1015.8